• In Belgien
  • Länderverzeichnis
  • Für 7 Tage
  • Wassertemperatur
  • Satellitenkarten
  • Wetterkarte
  • Widgets
  • user-avatar
    Anmelden

    Stündliche Wetter Belgorod

    Heute, 13 November, Dienstag

    Zeit Temperatur Niederschläge Wind Luftdruck Luftfeuchtigkeit
    00:00 -8°C° 0 mm 4 m/S 765 mmHg 31%
    01:00 -8°C° 0 mm 4 m/S 765 mmHg 31%
    02:00 -8°C° 0 mm 4 m/S 765 mmHg 32%
    03:00 -8°C° 0 mm 4 m/S 765 mmHg 31%
    04:00 -9°C° 0 mm 4 m/S 765 mmHg 31%
    05:00 -9°C° 0 mm 4 m/S 765 mmHg 30%
    06:00 -9°C° 0 mm 4 m/S 765 mmHg 30%
    07:00 -9°C° 0 mm 4 m/S 765 mmHg 30%
    08:00 -9°C° 0 mm 4 m/S 765 mmHg 29%
    09:00 -8°C° 0 mm 4 m/S 764 mmHg 29%
    10:00 -7°C° 0 mm 4 m/S 764 mmHg 29%
    11:00 -5°C° 0 mm 4 m/S 764 mmHg 30%
    12:00 -5°C° 0 mm 4 m/S 764 mmHg 31%
    13:00 -4°C° 0 mm 4 m/S 763 mmHg 33%
    14:00 -3°C° 0 mm 4 m/S 763 mmHg 34%
    15:00 -4°C° 0 mm 4 m/S 763 mmHg 37%
    16:00 -4°C° 0 mm 4 m/S 763 mmHg 40%
    17:00 -5°C° 0 mm 3 m/S 762 mmHg 43%
    18:00 -5°C° 0 mm 3 m/S 762 mmHg 43%
    19:00 -5°C° 0 mm 4 m/S 762 mmHg 43%
    20:00 -5°C° 0 mm 4 m/S 762 mmHg 44%
    21:00 -5°C° 0 mm 4 m/S 762 mmHg 43%
    22:00 -7°C° 0 mm 4 m/S 761 mmHg 42%
    23:00 -6°C° 0 mm 3 m/S 761 mmHg 41%

    Morgen, 14 November, Mittwoch

    Zeit Temperatur Niederschläge Wind Luftdruck Luftfeuchtigkeit
    00:00 -6°C° 0 mm 3 m/S 761 mmHg 41%
    01:00 -6°C° 0 mm 3 m/S 760 mmHg 41%
    02:00 -6°C° 0 mm 3 m/S 760 mmHg 40%
    03:00 -6°C° 0 mm 3 m/S 759 mmHg 42%
    04:00 -6°C° 0 mm 3 m/S 759 mmHg 44%
    05:00 -6°C° 0 mm 3 m/S 758 mmHg 46%
    06:00 -7°C° 0 mm 4 m/S 758 mmHg 51%
    07:00 -7°C° 0 mm 4 m/S 758 mmHg 55%
    08:00 -7°C° 0 mm 4 m/S 758 mmHg 60%
    09:00 -4°C° 0 mm 4 m/S 757 mmHg 61%
    10:00 -3°C° 0 mm 4 m/S 757 mmHg 62%
    11:00 -2°C° 0 mm 4 m/S 757 mmHg 63%
    12:00 -2°C° 0 mm 4 m/S 756 mmHg 63%
    13:00 -1°C° 0 mm 4 m/S 756 mmHg 63%
    14:00 -1°C° 0 mm 4 m/S 755 mmHg 63%
    15:00 -1°C° 0 mm 4 m/S 755 mmHg 68%
    16:00 -1°C° 0 mm 3 m/S 755 mmHg 73%
    17:00 -2°C° 0 mm 3 m/S 755 mmHg 78%
    18:00 -2°C° 0 mm 3 m/S 755 mmHg 80%
    19:00 -2°C° 0 mm 3 m/S 755 mmHg 82%
    20:00 -4°C° 0 mm 4 m/S 755 mmHg 84%
    21:00 -3°C° 0 mm 4 m/S 755 mmHg 85%
    22:00 -3°C° 0 mm 4 m/S 755 mmHg 86%
    23:00 -3°C° 0 mm 4 m/S 755 mmHg 87%

    übermorgen, 15 November, Donnerstag

    Zeit Temperatur Niederschläge Wind Luftdruck Luftfeuchtigkeit
    00:00 -3°C° 0 mm 4 m/S 755 mmHg 87%
    01:00 -2°C° 0 mm 3 m/S 755 mmHg 87%
    02:00 -1°C° 0 mm 3 m/S 756 mmHg 87%
    03:00 -2°C° 0 mm 3 m/S 756 mmHg 88%
    04:00 -3°C° 0 mm 4 m/S 756 mmHg 88%
    05:00 -3°C° 0 mm 4 m/S 756 mmHg 88%
    06:00 -3°C° 0 mm 4 m/S 756 mmHg 87%
    07:00 -3°C° 0 mm 4 m/S 757 mmHg 86%
    08:00 -4°C° 0 mm 4 m/S 757 mmHg 85%
    09:00 -3°C° 0 mm 4 m/S 757 mmHg 77%
    10:00 -2°C° 0 mm 4 m/S 757 mmHg 70%
    11:00 -1°C° 0 mm 4 m/S 757 mmHg 62%
    12:00 0°C° 0 mm 4 m/S 757 mmHg 60%
    13:00 0°C° 0 mm 4 m/S 757 mmHg 57%
    14:00 +1°C° 0 mm 4 m/S 757 mmHg 54%
    15:00 0°C° 0 mm 4 m/S 758 mmHg 57%
    16:00 -2°C° 0 mm 4 m/S 758 mmHg 60%
    17:00 -3°C° 0 mm 4 m/S 758 mmHg 63%
    18:00 -3°C° 0 mm 4 m/S 759 mmHg 62%
    19:00 -3°C° 0 mm 4 m/S 759 mmHg 61%
    20:00 -3°C° 0 mm 4 m/S 759 mmHg 60%
    21:00 -4°C° 0 mm 4 m/S 760 mmHg 59%
    22:00 -4°C° 0 mm 4 m/S 760 mmHg 57%
    23:00 -4°C° 0 mm 3 m/S 760 mmHg 56%

    16 November, Freitag

    Zeit Temperatur Niederschläge Wind Luftdruck Luftfeuchtigkeit
    00:00 -4°C° 0 mm 4 m/S 760 mmHg 54%
    01:00 -4°C° 0 mm 4 m/S 760 mmHg 53%
    02:00 -4°C° 0 mm 4 m/S 760 mmHg 51%
    03:00 -4°C° 0 mm 4 m/S 760 mmHg 50%
    04:00 -4°C° 0 mm 4 m/S 760 mmHg 48%
    05:00 -4°C° 0 mm 4 m/S 761 mmHg 47%
    06:00 -4°C° 0 mm 4 m/S 761 mmHg 44%
    07:00 -5°C° 0 mm 5 m/S 761 mmHg 41%
    08:00 -5°C° 0 mm 5 m/S 761 mmHg 39%
    09:00 -4°C° 0 mm 5 m/S 761 mmHg 34%
    10:00 -2°C° 0 mm 5 m/S 761 mmHg 29%
    11:00 -1°C° 0 mm 5 m/S 761 mmHg 24%
    12:00 0°C° 0 mm 5 m/S 761 mmHg 24%
    13:00 0°C° 0 mm 5 m/S 761 mmHg 24%
    14:00 0°C° 0 mm 5 m/S 761 mmHg 24%
    15:00 -1°C° 0 mm 5 m/S 761 mmHg 26%
    16:00 -2°C° 0 mm 5 m/S 761 mmHg 29%
    17:00 -4°C° 0 mm 5 m/S 761 mmHg 31%
    18:00 -4°C° 0 mm 5 m/S 761 mmHg 32%
    19:00 -4°C° 0 mm 5 m/S 761 mmHg 32%
    20:00 -5°C° 0 mm 5 m/S 762 mmHg 33%
    21:00 -5°C° 0 mm 5 m/S 762 mmHg 34%
    22:00 -4°C° 0 mm 4 m/S 762 mmHg 35%
    23:00 -4°C° 0 mm 4 m/S 762 mmHg 35%

    17 November, Samstag

    Zeit Temperatur Niederschläge Wind Luftdruck Luftfeuchtigkeit
    00:00 -4°C° 0 mm 4 m/S 761 mmHg 36%
    01:00 -4°C° 0 mm 4 m/S 761 mmHg 36%
    02:00 -4°C° 0 mm 4 m/S 761 mmHg 37%
    03:00 -5°C° 0 mm 4 m/S 761 mmHg 37%
    04:00 -5°C° 0 mm 4 m/S 761 mmHg 37%
    05:00 -5°C° 0 mm 4 m/S 761 mmHg 37%
    06:00 -5°C° 0 mm 4 m/S 761 mmHg 37%
    07:00 -4°C° 0 mm 4 m/S 761 mmHg 36%
    08:00 -4°C° 0 mm 4 m/S 761 mmHg 36%
    09:00 -3°C° 0 mm 4 m/S 760 mmHg 34%
    10:00 -2°C° 0 mm 4 m/S 760 mmHg 32%
    11:00 -1°C° 0 mm 4 m/S 760 mmHg 30%
    12:00 0°C° 0 mm 4 m/S 760 mmHg 30%
    13:00 0°C° 0 mm 4 m/S 759 mmHg 30%
    14:00 +1°C° 0 mm 3 m/S 759 mmHg 31%
    15:00 0°C° 0 mm 3 m/S 758 mmHg 33%
    16:00 -1°C° 0 mm 3 m/S 758 mmHg 35%
    17:00 -2°C° 0 mm 3 m/S 758 mmHg 37%
    18:00 -3°C° 0 mm 2 m/S 758 mmHg 36%
    19:00 -3°C° 0 mm 2 m/S 758 mmHg 35%
    20:00 -3°C° 0 mm 2 m/S 757 mmHg 35%
    21:00 -1°C° 0 mm 1 m/S 757 mmHg 34%
    22:00 -1°C° 0 mm 1 m/S 756 mmHg 33%
    23:00 -1°C° 0 mm 1 m/S 756 mmHg 32%

    18 November, Sonntag

    Zeit Temperatur Niederschläge Wind Luftdruck Luftfeuchtigkeit
    00:00 -1°C° 0 mm 1 m/S 755 mmHg 32%
    01:00 -1°C° 0 mm 1 m/S 755 mmHg 32%
    02:00 -1°C° 0 mm 1 m/S 754 mmHg 32%
    03:00 -4°C° 0 mm 2 m/S 754 mmHg 32%
    04:00 -4°C° 0 mm 2 m/S 753 mmHg 33%
    05:00 -4°C° 0 mm 2 m/S 752 mmHg 33%
    06:00 -4°C° 0 mm 2 m/S 752 mmHg 33%
    07:00 -4°C° 0 mm 2 m/S 751 mmHg 33%
    08:00 -4°C° 0 mm 3 m/S 750 mmHg 33%
    09:00 -2°C° 0 mm 3 m/S 750 mmHg 33%
    10:00 -2°C° 0 mm 3 m/S 749 mmHg 33%
    11:00 -1°C° 0 mm 3 m/S 749 mmHg 33%
    12:00 -1°C° 0 mm 3 m/S 748 mmHg 36%
    13:00 0°C° 0 mm 3 m/S 748 mmHg 38%
    14:00 0°C° 0 mm 3 m/S 747 mmHg 41%
    15:00 -1°C° 0 mm 3 m/S 747 mmHg 45%
    16:00 -1°C° 0 mm 3 m/S 747 mmHg 49%
    17:00 -2°C° 0 mm 2 m/S 747 mmHg 53%
    18:00 -2°C° 0.1 mm 3 m/S 747 mmHg 55%
    19:00 -2°C° 0.1 mm 3 m/S 747 mmHg 57%
    20:00 -2°C° 0.1 mm 3 m/S 747 mmHg 58%
    21:00 -2°C° 0 mm 3 m/S 747 mmHg 58%
    22:00 -4°C° 0 mm 3 m/S 747 mmHg 57%
    23:00 -4°C° 0 mm 3 m/S 748 mmHg 56%
    Mehr zeigen